Tracking 20942 objects as of 4-Jul-2020
HD Live streaming from Space Station
objects crossing your sky now

DELTA 1 DEB

Track DELTA 1 DEB now!
10-day predictions


NORAD ID: 12168
Int'l Code: 1978-026H
Perigee: 798.2 km
Apogee: 1,056.7 km
Inclination: 98.9 °
Period: 103.4 minutes
Semi major axis: 7298 km
RCS: 0.1563 m2 (medium)
Launch date: March 5, 1978
Source: United States (US)
Launch site: AIR FORCE WESTERN TEST RANGE (AFWTR)

Note: This is SATELLITE DEBRIS
aabbcc
Your satellite tracking list
Your tracking list is empty




NASA's NSSDC Master Catalog

Two Line Element Set (TLE):
1 12168U 78026H   20186.15652646 -.00000056  00000-0 -95098-5 0  9992
2 12168  98.9077  78.2989 0177133  26.3013 334.7010 13.92381236998349
Source of the keplerian elements: AFSPC